Theta_e
353 351 351 351 350 349 349 348 348 349 351 351 350 348 349 352 353 351 350 350 348 345 346 350 355 358 358 358 358 358 361 354 349 356 359 358 357 352 354 359 357 357 357 355 355 355 354 355 354 353 354 354 355 354 352 348 345 342 340 340 340 339 339 339 339 339 338 339 339 340 342 344 347 349
356 353 352 352 351 350 350 349 347 349 351 351 351 350 350 352 352 353 353 353 350 347 347 348 353 358 358 357 356 357 360 357 351 355 360 357 353 354 360 360 356 355 353 353 355 354 354 354 353 353 353 354 353 350 347 345 341 339 339 339 339 338 337 336 335 333 333 334 335 336 338 339 341 343
358 357 356 355 354 352 351 350 347 349 350 351 351 350 351 352 352 354 355 354 353 351 350 349 351 354 357 357 357 356 359 358 354 355 360 357 353 359 364 362 359 356 352 353 355 353 354 354 353 353 354 352 348 346 344 342 340 338 338 338 337 334 331 329 328 329 329 330 331 333 335 337 339 340
359 360 359 358 357 357 354 352 349 350 350 352 352 351 352 353 353 354 356 356 357 354 352 352 352 353 354 356 359 358 357 358 356 356 359 359 356 359 363 362 362 358 354 354 355 353 353 354 353 353 352 348 344 343 342 340 338 337 337 335 331 327 325 325 325 326 326 328 330 331 332 334 336 338
360 362 362 360 360 359 357 355 352 351 351 352 352 352 353 353 353 354 356 356 358 357 356 355 355 355 356 356 359 360 357 356 357 357 358 359 357 357 359 361 361 358 355 355 354 352 353 353 353 352 349 345 343 343 341 338 336 336 335 331 326 324 323 322 321 321 321 323 325 327 329 331 333 335
361 362 363 362 361 360 358 356 354 351 351 351 351 352 352 353 353 355 358 358 358 358 358 358 357 358 358 358 359 360 358 357 358 358 357 357 357 356 357 360 360 358 356 355 354 352 352 353 352 350 347 344 343 342 340 337 336 335 333 329 325 323 321 319 318 318 318 318 320 320 322 325 329 333
360 361 361 360 360 359 358 357 355 352 351 351 351 352 353 354 353 354 358 359 359 358 359 360 358 358 359 359 359 360 360 359 361 360 358 356 356 356 356 359 360 358 356 357 356 352 352 351 351 350 348 345 344 342 339 337 336 334 333 329 324 321 318 317 317 317 317 317 318 318 318 319 323 329
358 358 359 359 358 357 358 357 356 354 354 354 354 354 354 356 357 356 357 360 360 360 360 361 360 360 360 360 359 359 359 360 361 361 359 358 357 356 355 357 359 358 358 358 356 353 352 350 349 348 346 344 344 342 339 337 335 334 333 328 323 319 317 316 316 316 316 317 316 317 318 318 319 322
357 357 358 357 356 357 357 358 357 355 355 356 355 355 355 357 358 358 358 361 362 362 362 362 361 361 361 361 362 362 359 358 358 361 361 361 361 360 356 354 356 358 358 357 356 355 353 351 348 346 345 344 343 342 340 338 336 335 333 329 322 318 317 316 316 315 316 316 316 317 317 318 318 319
355 356 356 357 357 357 357 356 355 356 357 357 356 356 356 356 359 360 360 360 362 363 363 362 361 360 360 359 360 362 362 358 355 357 359 360 362 363 359 355 356 357 358 356 355 354 353 351 348 345 344 343 342 342 341 339 337 335 334 329 322 318 317 316 315 315 316 316 317 317 317 318 319 318
352 354 355 356 356 357 358 357 356 355 357 357 357 357 357 358 358 359 360 360 362 362 362 361 360 359 359 359 358 360 362 362 360 359 360 360 360 362 361 360 357 356 358 358 356 354 353 352 350 348 346 344 342 343 342 340 338 336 334 331 323 318 316 315 315 315 315 316 316 317 317 317 318 318
350 350 351 353 354 356 358 358 357 356 356 357 357 357 357 359 359 358 357 359 361 361 361 359 358 357 358 358 357 357 361 362 362 362 362 360 360 361 362 362 360 359 360 358 355 355 354 350 349 349 348 345 344 345 344 342 339 337 335 331 324 317 316 316 315 315 315 315 315 316 316 316 318 319
350 350 348 347 350 353 356 358 358 355 354 356 358 359 359 359 360 359 358 358 359 361 359 358 358 358 358 358 357 357 358 359 359 359 360 360 360 361 361 361 361 360 360 359 355 355 354 351 350 350 349 347 345 342 340 340 339 338 336 332 324 318 316 315 315 315 315 315 315 315 316 316 317 319
350 349 349 347 347 350 353 356 354 351 349 350 351 355 360 362 362 360 358 358 359 360 361 359 357 356 356 355 354 353 353 354 356 357 359 360 360 361 361 361 361 359 359 359 359 358 357 356 354 353 351 348 345 341 339 340 340 339 338 334 325 318 316 316 315 314 315 314 315 315 315 316 316 318
351 349 348 348 348 350 352 352 348 342 341 344 345 347 351 357 361 361 360 360 360 359 359 359 356 354 353 352 351 348 345 347 353 356 358 359 360 361 361 360 360 361 360 359 359 359 359 357 356 355 353 349 344 342 343 343 341 339 339 335 326 318 317 316 315 315 314 314 314 314 315 316 316 317
353 352 350 348 347 350 354 354 351 345 338 338 342 344 345 348 351 353 356 358 360 361 361 359 357 356 354 354 354 351 346 348 352 357 358 359 360 360 361 360 359 360 360 360 360 359 358 359 356 354 354 350 345 344 345 344 341 340 340 336 326 319 317 317 315 315 313 314 314 314 315 316 316 316
355 354 353 351 350 350 352 356 358 357 351 344 342 343 344 346 347 347 347 349 353 357 360 361 360 358 357 356 356 354 354 355 356 356 357 358 359 360 361 360 359 360 360 361 361 358 357 359 357 355 353 349 344 345 347 344 342 341 340 337 327 319 317 316 315 314 313 313 314 314 314 315 315 316
355 355 356 356 355 354 354 356 358 359 358 357 354 352 348 346 346 346 345 344 345 349 354 357 360 360 360 360 360 359 360 359 358 357 358 357 357 358 360 360 360 361 360 360 360 359 358 358 357 356 354 349 345 346 347 345 342 341 340 337 328 319 317 317 315 314 314 313 314 314 314 315 315 316
355 356 357 358 357 356 356 358 358 356 357 359 361 361 359 355 353 353 352 349 346 345 348 352 355 357 358 359 360 359 360 360 361 360 359 358 358 359 360 359 359 359 359 360 360 359 357 356 356 356 354 350 345 343 344 344 342 341 340 336 327 320 318 317 315 314 314 313 314 314 314 314 315 315
354 356 357 357 358 358 358 358 356 354 354 358 361 363 363 361 360 359 359 357 354 350 349 350 352 353 354 356 358 358 357 358 360 361 359 359 359 360 359 359 356 353 355 360 360 360 357 354 355 354 354 351 347 341 339 342 342 340 339 335 326 320 318 317 316 315 313 313 313 313 314 315 314 315
353 356 357 357 357 358 358 359 356 353 351 355 359 360 362 361 359 358 357 358 358 355 351 350 350 350 350 352 355 356 354 352 354 358 360 358 357 357 358 358 356 350 348 353 357 358 357 354 353 354 353 352 349 344 339 340 341 339 337 333 326 320 318 317 316 315 314 313 313 313 314 314 313 319
352 354 356 358 358 359 358 357 357 354 352 354 357 359 360 360 360 358 356 355 355 356 354 351 349 349 347 348 350 351 350 348 350 354 357 357 355 354 355 356 355 351 349 347 351 355 357 355 352 354 354 351 352 349 342 338 338 338 334 330 323 319 318 317 316 315 314 313 313 313 314 313 315 323
354 354 355 356 356 357 357 356 356 356 354 355 357 359 358 359 359 358 356 354 355 357 358 356 354 351 348 347 347 347 347 347 349 351 353 356 357 356 356 354 353 352 351 348 351 356 356 353 353 354 355 353 354 351 343 337 336 336 333 330 325 321 318 317 317 316 315 314 313 313 313 312 315 323
355 356 356 357 356 355 354 354 354 354 354 355 357 358 358 358 359 358 358 357 357 357 359 359 358 356 354 353 352 350 349 349 349 349 351 354 357 358 357 355 353 351 349 349 354 357 355 351 351 354 354 354 353 350 344 339 337 334 332 331 329 324 318 317 317 316 314 314 314 313 313 313 313 317
356 356 357 358 358 357 355 353 351 351 350 351 354 357 359 358 359 359 360 361 360 359 360 359 358 357 358 358 358 356 355 354 353 351 350 351 355 359 358 354 352 350 347 348 352 355 356 353 351 352 354 355 354 351 346 343 339 335 332 332 331 327 323 321 321 319 317 315 314 314 314 313 313 313
356 358 358 359 359 358 357 356 353 350 348 348 350 352 354 356 357 359 360 361 360 360 360 359 358 357 356 357 355 354 355 355 355 354 353 350 351 355 357 356 354 351 348 350 353 355 356 357 354 353 355 356 356 354 350 346 342 336 333 332 330 328 326 325 325 325 323 320 317 314 313 313 313 313
357 357 359 359 358 358 357 356 355 352 351 349 348 348 348 350 353 355 358 359 360 360 360 359 359 358 357 357 356 355 354 353 352 354 356 354 353 352 355 356 356 353 352 354 356 356 357 358 357 355 356 356 356 355 353 351 346 339 335 333 330 328 326 326 326 325 324 323 319 316 317 316 315 315
357 358 359 359 358 357 356 355 355 354 353 351 349 349 348 348 350 352 355 357 358 359 359 359 358 358 358 358 358 358 357 356 355 354 355 357 357 356 357 358 356 355 355 355 357 358 358 359 358 357 357 356 356 355 353 352 348 341 337 334 330 328 327 326 326 325 323 324 324 322 323 322 320 320
356 357 358 358 358 357 356 356 355 355 354 352 351 350 349 349 349 351 353 356 357 358 359 358 358 358 358 358 359 360 360 359 359 358 358 359 359 359 360 360 359 358 358 357 357 358 359 360 358 358 357 356 356 355 353 354 351 344 339 335 331 329 327 326 326 325 324 325 325 324 324 323 321 322
355 354 355 355 357 356 356 356 355 354 354 353 352 351 351 350 351 351 352 355 357 358 358 359 358 358 357 358 359 361 362 361 360 361 361 361 360 359 359 360 360 359 359 358 358 358 359 359 359 357 357 357 356 356 354 354 353 349 342 336 332 330 328 327 326 326 324 325 324 323 323 321 320 322
353 352 352 353 353 354 354 355 355 354 354 353 353 352 351 351 351 351 353 355 357 359 359 359 359 359 358 359 359 361 362 362 362 362 361 361 360 358 359 359 359 358 357 357 358 357 357 358 357 356 357 357 356 356 355 353 353 350 344 337 333 331 329 327 327 326 325 325 324 323 323 323 321 322
351 351 351 352 352 353 353 354 354 354 354 354 354 353 352 352 351 351 352 353 356 358 360 360 360 360 360 360 360 360 361 361 362 362 361 361 360 358 358 358 358 357 357 357 358 357 356 357 357 355 357 356 355 355 355 352 351 349 344 338 333 331 330 328 328 327 325 325 326 325 325 325 324 323
349 351 353 353 354 355 355 356 356 356 356 355 356 355 355 354 353 352 353 353 355 357 359 361 361 361 360 360 361 360 361 361 361 361 361 362 362 360 358 357 356 356 356 356 357 357 356 355 355 355 356 356 355 354 353 352 350 348 344 338 332 331 330 327 328 327 325 324 327 328 326 325 324 323
350 350 352 354 355 356 357 358 358 357 357 357 357 357 357 356 356 356 355 355 356 357 358 360 361 361 361 361 360 360 360 360 360 360 360 360 361 360 358 358 356 356 356 355 355 357 355 353 353 355 355 354 354 352 351 350 348 344 342 338 333 331 330 328 328 328 326 325 327 328 327 327 325 323
352 349 349 351 354 356 357 359 359 358 357 356 357 358 358 357 358 357 357 357 358 357 358 359 360 361 361 361 361 361 360 359 359 358 358 359 360 360 358 357 356 356 356 355 354 354 354 353 353 353 351 350 350 349 348 347 344 343 342 338 333 331 330 327 328 328 327 326 326 327 327 328 327 324
352 349 348 350 353 356 358 359 360 360 358 357 357 358 358 358 359 358 358 358 359 358 359 359 360 361 361 361 362 361 360 360 359 358 357 358 359 359 358 357 357 358 357 357 356 354 353 352 351 351 351 350 347 347 347 344 341 341 342 338 333 331 330 328 328 328 327 326 326 326 326 327 328 327
350 349 349 349 353 355 357 358 359 360 360 359 359 358 359 359 359 359 359 359 359 359 360 360 360 361 361 361 362 362 361 360 359 359 359 359 359 360 358 357 358 359 358 358 357 355 352 350 349 349 350 350 346 346 348 345 339 338 339 337 334 332 330 329 329 328 327 327 327 327 326 326 327 327
352 353 351 350 351 353 355 357 358 359 360 360 360 359 360 359 360 360 360 361 361 360 360 360 360 361 361 361 361 361 361 360 359 359 360 359 359 360 359 358 357 358 358 358 357 355 352 351 349 349 350 350 347 346 347 344 338 335 335 335 333 332 331 331 331 329 328 328 328 327 327 326 327 327
355 357 356 355 354 354 355 357 358 359 360 361 360 360 360 360 360 360 360 361 362 361 361 360 360 361 361 361 361 360 359 359 359 359 359 360 359 359 360 359 358 357 358 358 357 355 352 352 351 350 350 350 349 348 347 345 339 335 332 332 332 331 331 331 331 329 328 328 328 328 327 327 327 326
355 358 359 359 359 359 359 360 360 360 361 361 361 361 361 361 360 361 361 361 362 362 361 361 361 360 361 360 359 359 358 357 357 358 359 359 359 358 358 358 357 357 358 357 357 355 353 352 352 350 349 349 349 348 345 341 337 334 332 330 329 330 330 331 329 328 328 329 329 329 328 328 328 326
354 356 359 359 360 360 360 360 361 361 361 361 362 362 362 361 361 361 361 361 361 362 362 361 361 361 360 360 359 358 358 357 357 359 359 359 358 357 356 357 356 357 356 356 355 355 353 351 350 348 347 346 345 343 340 338 336 335 333 330 327 327 330 330 328 327 328 329 329 330 329 328 329 329
356 357 359 360 360 361 361 362 362 362 362 362 363 363 363 363 362 361 361 361 362 363 362 361 360 359 359 359 359 359 359 358 358 358 358 359 359 357 356 355 355 355 355 355 355 355 353 350 346 345 345 343 340 338 337 337 336 335 332 329 326 324 327 330 328 326 328 330 330 330 329 328 328 328
360 359 359 360 361 361 362 362 362 362 362 363 363 363 364 363 361 360 361 362 361 361 362 361 359 359 360 359 359 359 359 359 359 359 359 358 358 358 356 354 353 353 354 354 355 354 353 348 345 344 343 340 337 338 339 337 335 333 331 329 327 324 323 325 327 326 325 327 328 328 328 328 328 329
362 362 361 361 361 361 362 362 362 363 363 363 363 363 363 362 360 360 361 360 360 360 360 361 361 360 360 360 359 359 359 358 358 358 358 357 357 357 356 355 352 351 352 353 354 353 351 347 343 342 341 339 338 339 339 336 334 332 330 330 330 326 322 321 323 322 322 322 324 324 324 324 325 325
359 361 362 361 361 361 361 362 362 362 363 362 363 363 362 360 360 360 360 359 359 360 360 360 360 360 359 359 360 360 359 358 357 357 357 357 357 356 356 355 353 351 352 353 353 351 347 343 341 340 339 338 338 337 337 335 333 332 332 331 332 329 326 322 321 320 321 322 323 322 322 323 323 323
Wind_Speed
6 7 7 7 7 6 5 5 4 3 2 2 2 1 1 2 3 1 2 2 1 2 3 1 2 3 5 5 5 5 4 7 10 8 7 8 8 10 9 8 9 10 11 12 12 13 14 15 16 16 15 13 12 12 12 12 13 14 14 14 14 15 15 15 14 14 13 13 13 12 12 12 13 15
6 6 6 6 7 7 7 7 6 4 4 4 3 2 2 2 3 3 2 2 2 3 4 3 3 3 5 5 5 5 5 7 9 8 7 7 9 9 7 7 10 12 13 13 13 15 15 15 15 15 14 12 12 11 11 12 14 15 15 15 15 16 16 16 15 15 15 14 14 13 13 13 13 13
6 6 6 6 7 7 7 8 7 6 6 6 5 4 3 3 3 4 4 3 3 5 5 5 5 5 5 5 6 6 6 8 10 8 6 8 11 8 4 7 11 13 14 13 13 16 15 13 14 13 12 11 10 10 11 13 15 15 15 15 16 17 16 16 15 14 14 14 14 14 13 13 13 13
6 7 7 7 7 7 7 8 8 7 7 7 6 6 5 5 4 4 5 5 5 6 6 6 6 6 6 5 5 6 6 7 9 8 6 7 10 6 4 7 10 12 14 13 14 16 13 12 12 11 10 9 9 10 12 13 14 14 15 16 17 18 17 16 15 14 13 13 12 12 12 13 13 13
7 7 7 8 8 8 7 8 8 8 8 8 8 7 7 7 6 5 6 6 7 7 6 6 6 6 6 5 5 6 7 6 7 7 6 6 6 5 4 5 7 10 13 13 14 15 12 11 10 10 9 8 9 11 12 13 14 15 16 18 18 18 18 17 16 15 14 12 11 10 10 11 12 12
9 8 8 9 8 9 9 8 9 9 9 9 9 8 8 7 7 6 6 7 8 8 7 7 7 6 6 6 5 6 7 6 6 6 6 5 5 5 4 3 5 10 12 11 13 14 12 10 9 9 8 8 10 12 13 14 15 16 18 19 19 19 18 18 17 16 14 13 11 10 9 9 10 11
11 10 10 10 10 10 9 10 9 9 9 9 9 9 8 8 8 7 7 8 8 9 8 8 8 7 6 7 7 7 7 6 6 6 5 5 5 5 5 2 4 9 11 10 12 14 12 9 8 8 8 8 9 11 13 14 15 16 18 19 19 19 18 18 17 16 15 14 12 11 10 9 8 9
11 12 12 12 11 11 11 11 10 10 10 10 10 10 10 10 10 8 8 9 9 10 10 9 8 8 8 8 8 7 7 6 6 5 5 5 5 6 6 3 4 9 10 8 10 12 12 9 8 7 7 8 9 11 13 14 15 17 19 19 19 19 18 18 17 17 16 15 14 13 12 10 8 8
12 12 13 12 12 12 12 12 12 12 12 11 11 11 10 10 10 9 10 10 10 11 11 10 9 9 9 9 7 7 7 6 6 6 5 5 4 5 6 4 5 7 6 6 10 12 12 10 7 7 7 7 9 11 13 15 16 17 19 19 19 18 18 18 18 17 17 16 16 14 13 12 10 8
12 13 13 13 13 14 14 14 13 13 12 13 12 12 11 10 10 10 10 11 11 12 12 11 11 10 9 9 8 7 7 7 8 7 6 5 4 4 5 5 4 3 1 5 8 8 10 11 8 7 7 8 9 11 13 15 16 17 19 19 19 19 18 18 18 18 18 17 16 15 14 13 11 9
13 14 14 14 15 15 15 15 14 14 13 14 14 13 12 12 11 11 11 11 11 12 12 12 12 11 9 9 8 7 7 7 8 7 6 5 4 4 5 5 5 3 3 5 5 4 8 10 8 8 8 8 10 12 13 14 15 17 18 19 19 19 18 18 18 18 18 17 17 16 15 13 12 11
14 15 15 15 15 16 16 16 15 14 14 14 14 14 13 12 12 12 12 12 12 12 12 12 11 11 10 9 9 8 7 8 7 6 6 6 6 5 5 5 5 4 5 6 5 4 8 8 9 9 8 9 11 13 14 15 15 16 18 19 19 18 18 18 18 17 17 17 17 16 15 14 13 12
16 16 16 16 16 16 17 18 18 17 16 15 14 13 13 13 13 13 12 12 12 12 12 12 11 11 10 10 10 8 8 8 7 6 7 7 7 6 6 6 5 4 6 5 4 4 5 5 6 6 5 8 11 10 11 13 14 16 18 19 19 18 17 17 17 17 17 16 16 15 15 14 13 13
17 17 17 17 17 18 19 21 23 22 20 20 19 16 14 13 13 13 14 13 13 13 12 12 12 11 11 10 9 9 9 9 8 8 7 7 7 7 7 7 6 5 5 6 6 6 6 5 5 5 6 6 4 3 8 12 13 15 17 18 18 17 17 17 16 16 16 15 15 15 14 14 13 13
18 18 18 18 18 19 21 23 25 24 22 22 22 21 20 18 17 15 14 14 14 14 14 13 12 12 12 11 10 11 11 9 9 8 7 7 8 8 8 8 7 6 6 6 7 8 8 6 6 7 8 5 3 6 11 13 12 13 15 16 16 16 16 16 16 15 15 14 14 14 13 13 12 12
19 19 19 18 18 18 19 21 21 22 22 22 22 23 23 22 23 22 20 17 15 14 14 14 14 13 13 12 11 11 11 9 8 8 8 8 9 9 9 9 8 7 7 7 8 9 9 7 7 9 9 6 7 10 12 12 11 12 14 15 15 15 15 15 15 14 14 13 13 13 12 12 11 12
20 20 19 19 18 18 18 20 19 19 20 20 22 22 22 23 24 25 26 25 23 19 16 15 15 14 13 13 13 11 9 9 9 9 10 9 10 10 10 10 10 8 7 8 9 10 9 8 9 10 9 8 10 14 13 10 10 11 12 13 13 13 14 14 14 13 13 12 12 12 12 11 11 11
20 20 20 19 19 18 18 19 20 20 19 18 19 20 22 24 24 25 26 27 27 26 23 21 19 17 15 15 15 12 10 10 11 11 11 11 11 12 12 12 13 12 11 10 11 11 9 8 9 10 9 10 10 13 13 10 10 10 10 11 12 12 12 13 12 12 12 11 11 11 10 10 10 10
22 21 21 20 20 20 19 20 22 22 20 18 18 18 19 21 22 23 24 25 26 27 28 27 25 22 20 19 17 15 13 13 13 12 12 12 12 13 14 14 14 14 13 12 11 10 10 8 9 9 8 9 9 12 13 11 9 9 8 9 9 10 11 11 11 10 10 10 10 10 9 10 9 9
24 23 23 22 22 22 21 22 24 25 22 19 18 18 19 19 20 20 21 23 24 24 25 26 25 23 22 20 20 18 16 14 12 11 12 13 12 12 13 14 14 14 13 12 12 10 10 8 9 9 7 8 8 10 12 12 10 8 7 7 7 8 9 9 9 9 8 9 9 8 9 9 7 9
25 25 25 24 24 23 24 24 26 28 26 22 19 19 19 19 20 20 20 21 23 24 24 25 25 25 24 23 23 23 21 19 16 12 12 13 13 13 13 13 14 14 13 11 11 10 10 9 9 10 7 8 8 9 11 12 11 8 6 5 4 5 7 7 7 8 7 7 7 7 8 7 7 11
26 27 27 27 27 25 25 26 27 28 28 25 22 21 20 20 21 21 19 20 22 22 22 23 25 26 25 24 24 25 24 23 21 19 18 16 14 14 14 14 14 14 14 14 11 11 11 10 9 10 7 8 11 11 11 13 13 10 7 4 2 3 4 5 5 6 6 6 6 7 7 6 8 10
27 27 29 31 32 31 29 28 28 29 29 27 24 22 21 22 23 22 20 19 20 20 20 21 23 25 26 26 26 26 25 24 23 23 23 20 16 16 16 15 14 13 13 13 11 11 11 10 10 10 8 8 9 10 12 12 11 10 8 5 3 2 1 2 3 4 5 5 6 7 7 7 9 9
25 26 26 29 33 36 35 33 32 31 31 29 26 22 22 24 23 20 19 20 20 19 19 19 19 21 22 22 23 24 24 24 25 26 26 24 20 18 17 16 15 14 14 12 11 12 11 11 11 11 11 10 6 8 12 11 10 9 9 7 5 4 2 1 1 2 4 5 6 7 8 9 10 10
25 25 26 26 29 32 35 36 36 36 35 34 29 25 25 25 23 19 17 18 18 19 19 19 19 19 19 19 19 20 21 22 25 27 28 28 25 21 19 18 18 18 17 15 14 13 12 12 12 12 12 12 9 8 11 11 11 12 11 10 9 7 5 3 2 2 2 5 6 6 8 9 10 11
25 25 25 25 26 29 31 33 35 36 37 37 35 33 31 29 26 23 19 17 17 18 19 19 19 19 20 20 20 21 21 21 22 23 26 28 28 26 23 21 20 19 17 14 14 14 13 13 14 13 12 13 13 10 10 11 11 12 11 10 10 9 7 7 6 5 3 2 3 5 8 9 9 11
25 25 25 25 26 28 31 32 32 33 34 36 37 36 35 33 32 29 24 20 20 20 19 19 20 19 19 19 20 21 21 21 21 20 21 23 26 27 26 24 23 22 19 16 15 15 15 15 16 15 14 14 14 13 13 12 12 13 13 11 11 10 9 8 8 7 6 6 3 3 6 7 7 9
25 24 24 24 25 28 30 31 31 31 32 33 34 34 33 33 34 33 28 24 23 22 21 22 22 21 20 20 20 20 20 20 19 20 20 20 22 24 24 23 23 23 22 20 19 19 19 18 17 17 17 16 15 15 15 13 12 16 15 12 12 12 11 10 9 8 8 7 4 2 1 2 3 5
28 26 24 23 23 25 27 28 29 30 32 32 32 31 30 30 34 35 31 26 25 25 25 23 23 22 21 21 21 19 19 19 18 18 19 19 20 21 21 21 22 23 23 23 22 22 21 21 20 18 18 18 18 18 17 15 12 14 15 13 13 14 13 11 10 10 9 8 6 5 4 3 2 1
32 30 27 24 22 22 24 26 29 31 32 32 31 31 31 32 34 34 30 26 25 26 25 24 23 22 21 20 20 20 19 20 19 19 19 19 20 20 21 21 21 23 23 23 23 23 23 23 22 20 19 20 20 19 18 16 15 13 14 15 14 13 14 13 12 11 11 9 8 7 5 4 4 4
38 33 29 29 28 27 27 28 29 31 31 31 31 32 33 35 36 33 28 26 26 25 24 24 23 22 20 20 20 20 21 21 20 20 20 21 21 20 20 20 21 21 21 22 23 23 23 24 24 23 22 21 21 19 18 17 17 15 14 16 15 13 14 15 14 13 12 11 9 8 7 5 4 4
30 26 26 29 30 29 29 28 28 28 28 27 27 28 28 31 33 32 29 27 26 25 24 24 23 22 22 22 21 21 22 22 21 20 21 21 21 20 20 20 20 19 19 21 22 23 23 24 25 25 25 24 21 19 17 17 18 17 15 16 15 13 13 16 16 15 14 13 11 9 9 8 6 5
18 19 22 24 25 25 26 26 27 27 26 24 24 24 23 24 26 27 28 28 27 26 25 25 25 24 24 24 23 22 22 22 22 22 22 22 21 20 20 21 21 19 19 20 20 22 23 24 25 24 22 21 19 17 17 18 19 18 16 15 15 14 14 14 15 16 16 15 13 11 10 9 9 8
23 27 25 22 23 25 25 26 28 28 27 25 24 23 23 23 23 24 26 26 26 25 25 25 24 24 24 24 24 24 23 22 23 23 22 23 22 21 21 22 22 21 20 20 20 20 20 21 22 21 18 18 18 19 19 18 17 16 15 14 14 15 15 14 14 15 17 15 13 12 12 11 11 10
29 34 28 22 23 24 24 25 27 28 28 27 25 24 25 25 25 25 25 24 24 24 24 24 24 24 24 24 24 25 24 24 23 23 22 23 24 23 23 24 23 22 21 21 21 20 19 20 20 17 15 15 17 18 20 22 19 16 15 16 15 15 15 15 15 15 16 15 13 12 12 11 12 12
31 33 29 23 22 22 23 25 27 28 29 28 26 25 25 25 25 26 25 24 23 23 23 23 23 24 24 24 24 25 24 24 24 23 23 23 24 24 25 24 24 23 23 22 21 19 21 23 22 18 15 15 14 13 18 25 26 22 18 16 16 16 15 15 15 15 15 15 14 13 12 11 12 13
31 30 29 26 23 22 23 24 25 26 28 28 27 26 26 25 25 25 25 24 24 24 24 24 23 24 24 24 24 24 24 25 25 24 24 23 24 25 25 25 25 25 24 24 22 20 22 23 22 19 17 13 10 11 15 21 27 29 25 19 16 17 16 15 15 16 15 15 15 14 13 11 10 11
27 25 25 25 24 23 23 24 23 24 25 26 27 28 27 27 26 25 24 24 25 25 25 25 25 25 24 24 25 25 25 26 27 26 26 25 25 27 26 26 26 26 25 24 23 22 24 23 22 23 21 16 11 13 14 14 20 29 33 27 19 16 17 17 17 17 16 16 15 14 13 10 9 11
24 22 21 22 22 23 23 23 24 24 24 25 26 27 28 28 27 26 25 25 26 26 25 25 26 25 24 25 26 25 26 27 27 27 27 26 27 27 26 25 26 25 23 24 24 23 26 26 25 27 29 25 19 17 17 15 16 24 32 32 25 19 19 20 19 17 17 16 15 13 13 11 10 12
26 24 22 22 22 22 23 23 24 25 25 26 27 28 28 28 27 26 25 25 25 26 26 26 26 25 25 27 26 25 27 28 27 27 28 26 27 27 26 25 27 25 23 23 24 24 27 30 30 31 30 27 23 20 16 13 12 16 25 32 31 25 21 21 20 17 17 17 16 14 14 12 11 12
25 24 24 23 23 24 25 26 26 25 25 26 27 27 27 28 26 23 22 23 26 27 28 28 27 26 25 25 25 25 26 27 26 26 27 26 26 28 28 27 27 26 25 25 25 26 28 28 29 31 29 25 22 18 13 11 11 14 19 28 34 32 26 23 22 20 16 16 16 15 14 12 11 11
24 23 23 24 24 24 25 25 26 26 25 24 24 24 24 24 22 20 22 25 27 27 28 28 28 27 25 24 24 25 26 26 26 25 25 24 24 25 28 30 29 28 28 27 25 26 26 25 25 29 31 28 23 18 13 12 14 16 17 21 31 35 31 25 25 23 19 16 16 15 12 11 10 10
25 24 23 23 23 25 25 25 26 27 25 24 24 23 22 19 19 21 25 26 24 25 28 28 28 27 26 25 27 27 27 26 26 25 24 25 26 25 26 28 29 28 28 27 26 25 25 23 23 26 29 28 25 22 20 17 17 18 17 17 23 30 33 31 28 27 23 20 18 17 14 11 10 10
24 25 25 24 24 25 26 27 27 28 27 25 25 24 21 20 23 28 28 24 21 23 27 28 26 26 26 25 26 29 30 30 30 29 27 28 30 30 27 26 27 27 26 26 24 22 23 25 24 24 26 26 25 25 24 21 18 19 20 19 18 23 29 32 32 30 27 24 22 21 19 16 14 13
19 22 25 26 25 25 25 25 26 27 27 26 26 25 22 23 27 29 28 26 25 24 25 25 25 24 24 23 22 26 30 30 31 32 30 28 28 30 29 28 27 25 25 25 22 20 21 24 24 24 25 24 22 23 24 22 20 20 19 18 18 18 21 27 31 30 26 24 23 21 19 17 16 15
Wind_Direction
227 225 218 222 235 235 235 248 255 248 263 274 275 298 337 350 339 338 12 353 356 5 334 328 81 13 350 339 332 343 333 333 352 357 346 353 346 340 359 12 8 16 14 8 8 6 2 359 356 0 6 13 19 23 27 24 18 14 11 12 12 13 12 8 4 359 353 350 346 340 332 323 314 308
227 229 225 224 233 236 235 242 247 241 246 257 260 262 267 309 322 331 340 319 331 346 325 325 6 355 340 332 328 336 323 324 346 355 342 350 355 350 358 3 4 11 7 5 9 6 3 2 4 12 21 27 29 28 26 20 16 14 14 15 14 11 8 4 359 354 350 346 343 341 339 337 332 325
225 226 229 230 234 239 241 243 244 238 237 245 249 248 250 268 293 311 310 300 318 321 311 320 330 325 329 329 322 330 325 319 337 351 338 345 3 1 326 331 348 357 0 5 8 5 5 7 12 22 28 29 29 27 22 17 15 15 16 15 12 9 7 4 1 357 354 349 343 341 338 338 338 336
230 228 230 232 233 236 238 241 239 233 232 238 245 245 244 252 260 274 285 287 297 302 301 308 312 316 323 318 311 320 325 323 335 346 336 340 3 8 306 312 334 347 356 5 5 5 11 15 19 26 27 28 29 22 18 16 17 17 16 14 11 11 10 9 8 6 2 357 350 344 339 336 335 336
235 234 234 235 234 232 233 234 233 229 227 231 238 241 239 246 249 251 266 279 289 294 298 299 301 312 315 308 307 314 318 324 331 339 338 338 352 0 331 313 324 341 352 2 6 11 20 22 23 28 28 26 22 17 17 17 18 18 16 14 12 14 14 12 11 9 7 3 355 349 344 339 336 337
235 235 237 238 234 233 234 235 235 231 228 229 232 234 237 244 248 244 253 271 284 287 290 293 294 300 301 299 303 309 313 319 324 329 336 340 341 346 344 314 310 333 349 1 7 15 26 27 24 25 22 18 14 12 13 15 17 17 14 13 14 15 15 14 13 13 12 8 0 354 350 346 342 341
233 234 237 239 237 235 235 236 238 236 235 237 238 238 240 245 250 247 244 253 270 281 285 288 292 293 294 295 297 300 304 307 312 321 326 332 338 336 334 303 288 324 346 3 7 13 23 25 23 21 14 9 7 7 8 11 15 15 13 13 14 16 16 16 17 17 16 15 10 5 2 357 350 344
233 235 237 239 238 237 237 236 237 238 236 236 239 241 241 242 248 249 244 244 255 269 277 278 283 288 289 289 288 292 299 298 299 307 311 318 332 334 332 309 278 313 339 1 2 9 17 18 17 14 6 2 1 2 5 8 11 13 12 12 14 16 18 18 19 19 19 18 17 14 12 9 1 351
234 235 237 238 237 236 237 236 237 237 236 235 237 240 240 239 243 244 243 244 248 257 268 273 276 279 280 282 282 282 289 297 298 296 294 298 311 329 336 326 292 303 334 356 352 2 11 10 7 2 357 356 355 359 3 5 8 9 10 12 13 15 17 18 19 20 20 20 20 18 16 14 11 4
235 235 236 237 236 235 236 236 238 237 235 236 237 239 240 239 239 240 242 244 246 251 259 267 271 272 273 276 278 274 275 288 297 295 291 289 291 315 333 333 309 279 283 339 341 358 4 359 356 350 346 348 350 354 359 1 4 6 8 10 12 14 16 17 18 19 20 21 20 18 17 17 17 14
237 236 236 236 234 234 235 235 237 237 236 237 237 236 237 236 236 238 240 241 243 247 253 259 264 267 269 271 274 271 265 276 282 277 280 292 293 300 315 322 315 288 271 292 298 328 347 347 346 340 337 341 344 346 351 357 0 3 6 8 10 13 14 15 16 18 19 20 20 18 17 19 21 21
240 239 238 237 235 233 233 233 234 235 236 237 238 236 233 231 234 238 241 242 241 245 251 255 260 264 267 268 271 269 260 263 267 259 266 286 291 290 296 303 304 298 290 274 255 308 335 334 335 339 336 336 338 339 343 351 355 358 3 6 8 12 13 13 15 16 18 19 18 18 18 21 25 27
242 242 241 241 238 235 233 233 233 234 233 234 237 237 233 232 232 235 239 241 241 244 249 253 257 259 261 261 263 263 257 259 264 259 262 273 279 284 288 289 281 280 293 283 252 285 311 295 310 325 309 316 334 339 336 339 345 353 1 3 5 10 11 11 12 13 16 18 17 17 18 22 26 29
243 244 244 244 241 238 236 237 240 242 241 239 239 237 233 232 234 237 239 239 239 242 246 250 253 254 257 260 262 266 267 264 263 260 259 265 275 284 282 282 275 259 276 292 281 280 278 264 278 279 263 288 323 308 304 320 334 346 356 1 4 8 10 9 8 9 13 17 17 16 18 21 23 26
243 245 245 245 243 239 236 240 246 250 250 246 244 242 236 232 231 234 238 240 241 242 245 249 253 255 259 261 264 271 273 269 262 262 265 268 274 279 277 280 277 258 262 283 285 282 275 259 268 274 266 263 226 250 288 311 327 340 352 359 2 6 8 5 5 7 11 14 16 16 17 19 20 21
240 242 243 244 242 237 234 235 242 249 252 250 247 246 244 240 237 236 237 239 241 244 248 251 251 253 258 259 259 264 271 272 268 263 265 268 270 274 274 276 277 270 271 277 278 281 271 243 252 271 263 244 238 260 286 306 318 333 347 354 1 7 6 2 1 3 9 13 15 17 19 19 19 19
237 238 239 240 239 237 233 230 230 237 247 250 250 249 248 247 245 242 240 240 240 242 248 254 253 252 254 257 257 257 261 266 266 263 263 263 266 270 271 272 276 275 270 264 268 280 269 234 243 262 242 217 244 269 283 297 308 325 342 350 360 7 5 0 358 359 7 13 15 17 19 20 18 20
237 236 235 236 236 235 231 226 224 226 232 240 247 249 249 249 249 247 246 244 241 240 242 246 250 250 249 251 253 253 249 249 254 258 261 264 267 270 272 273 274 271 263 257 261 274 268 236 242 259 232 204 232 266 278 286 298 314 333 347 359 7 6 359 355 358 4 11 17 19 20 22 23 26
239 236 235 235 236 235 231 227 226 226 225 226 231 236 241 245 246 246 245 244 243 241 239 241 244 246 247 250 252 251 248 248 250 252 257 264 268 271 273 273 271 268 259 243 243 263 268 247 246 257 236 203 216 250 267 277 287 300 325 346 356 4 7 359 354 359 3 9 17 20 22 26 30 35
239 237 234 234 234 235 234 231 231 231 227 223 225 228 232 237 240 241 241 241 242 241 238 239 241 242 243 244 245 244 242 242 246 250 256 259 258 262 267 268 268 270 258 229 222 248 266 257 255 258 231 196 209 239 257 272 280 286 309 338 354 4 8 360 356 1 6 11 17 22 28 33 39 47
239 237 234 233 233 234 234 233 235 237 234 227 226 229 231 235 239 241 242 242 245 246 243 240 240 240 240 238 239 240 240 240 241 245 251 251 249 252 259 262 266 271 265 240 224 239 258 259 260 260 229 202 224 239 242 257 271 276 287 309 346 6 6 2 0 3 9 16 19 24 34 40 51 56
238 238 236 234 232 232 234 234 235 238 237 231 228 230 232 235 238 240 240 241 244 247 246 243 241 242 242 240 238 238 239 239 238 238 241 243 247 250 251 258 267 271 270 261 242 236 252 259 255 254 236 218 232 232 223 238 258 265 263 270 314 3 6 2 2 9 18 24 27 35 43 49 60 68
236 237 238 237 236 235 234 234 234 237 236 231 228 230 233 235 238 238 237 239 240 238 234 234 237 241 243 243 241 240 238 236 233 233 234 236 242 246 247 253 261 265 268 261 234 221 245 260 250 241 240 240 231 207 199 220 246 254 248 246 266 310 2 5 5 21 32 32 34 42 48 54 65 77
235 236 236 237 239 240 239 237 235 237 237 234 229 228 232 235 238 238 237 238 240 238 234 233 236 238 241 242 243 242 239 234 230 230 231 231 232 235 242 248 249 255 264 255 224 219 245 264 258 243 242 256 243 184 186 207 220 218 216 217 229 246 249 243 26 51 59 53 46 47 52 56 64 77
236 237 236 236 239 242 243 242 240 239 240 239 233 230 232 235 237 238 239 238 238 239 241 242 241 239 238 238 239 240 237 233 230 230 231 230 228 227 233 241 245 252 260 251 231 230 244 255 259 251 241 247 249 206 189 199 204 205 210 214 215 222 223 206 182 144 82 60 52 51 56 58 61 69
237 238 237 237 237 240 243 245 244 242 242 242 239 238 238 239 237 236 240 243 243 242 244 245 244 242 241 240 240 240 239 235 232 229 229 230 230 228 229 234 241 249 256 252 239 235 237 242 252 255 241 239 246 236 215 210 205 202 212 218 213 210 205 190 183 182 165 117 81 66 62 63 67 69
238 239 239 238 238 239 243 245 246 246 245 243 243 245 245 246 244 241 241 245 247 247 247 246 245 243 241 241 241 239 239 240 237 232 228 227 228 231 231 233 238 245 249 251 246 239 237 239 245 247 242 241 245 240 235 230 208 194 204 216 211 209 209 198 189 181 170 172 170 78 52 44 51 58
240 240 240 240 239 240 243 246 248 250 250 248 248 249 251 251 249 245 242 243 245 246 245 244 243 241 239 239 240 238 238 241 241 237 232 227 226 230 233 234 238 241 242 244 245 242 240 240 241 241 240 243 246 244 244 241 211 188 194 208 210 209 207 197 191 185 173 173 179 149 85 20 20 31
240 241 241 243 244 244 245 247 250 251 253 253 252 253 254 253 250 245 241 240 242 243 242 240 239 237 236 236 237 238 239 240 239 235 233 231 229 230 233 235 237 239 240 241 241 240 239 238 239 240 238 238 243 246 248 249 231 198 190 199 209 207 201 196 193 187 178 174 173 171 173 174 152 91
240 241 243 245 247 249 248 249 250 252 255 257 257 255 253 251 247 243 238 235 237 238 238 238 236 234 234 233 233 234 235 235 235 232 231 232 231 231 233 235 237 237 238 240 240 239 239 238 239 240 240 238 239 241 243 243 240 222 201 199 205 202 197 200 199 186 178 176 174 173 174 168 147 132
242 241 244 247 250 253 254 253 253 255 256 257 257 254 251 247 243 239 234 233 234 235 236 237 236 234 232 231 231 230 230 231 231 229 228 232 235 235 234 235 238 239 238 238 238 237 238 239 238 237 239 239 237 237 238 236 236 232 216 205 207 206 199 197 196 189 181 177 175 176 180 184 169 149
241 241 243 247 248 248 250 251 251 250 248 247 247 246 245 244 242 238 235 234 234 234 235 236 236 234 232 231 231 231 232 233 231 227 227 231 236 237 235 235 238 240 239 237 236 234 233 237 240 238 236 238 237 233 231 231 232 234 227 213 210 213 205 196 194 191 181 176 180 184 185 192 191 176
238 241 240 242 243 243 244 245 245 245 242 240 239 236 234 234 235 233 230 230 230 230 231 233 234 233 233 233 232 231 232 232 232 231 229 231 233 235 236 238 239 238 239 240 237 229 226 232 240 240 237 237 238 232 228 231 233 233 227 215 211 215 210 201 199 192 182 179 186 188 186 190 192 187
236 238 236 236 239 241 242 242 243 243 242 239 238 235 231 230 230 229 227 227 228 227 227 229 231 232 233 233 233 232 232 232 234 233 231 230 232 232 234 239 241 239 240 245 241 228 218 220 229 235 235 236 235 229 227 229 229 226 223 216 212 214 212 206 201 194 187 185 188 190 193 193 188 187
234 232 230 231 235 237 238 240 241 241 241 240 240 239 236 233 231 231 229 228 226 225 226 227 228 230 232 233 234 235 234 234 236 235 232 230 230 230 232 238 241 239 237 241 241 230 213 208 212 218 223 227 227 225 224 224 221 220 224 222 215 212 212 209 202 197 194 194 192 194 199 198 191 190
234 230 229 229 232 234 236 238 240 240 241 241 240 240 240 238 234 233 233 230 226 224 226 227 227 229 231 233 236 238 236 236 236 234 233 230 226 226 231 235 239 238 234 234 237 227 209 204 205 208 213 218 220 226 230 228 223 218 216 216 213 210 208 205 203 203 203 201 197 199 207 206 194 189
229 226 228 228 230 234 236 239 241 241 242 243 241 241 241 240 238 237 235 232 229 228 229 228 228 230 231 232 236 238 236 236 236 232 232 231 226 225 228 232 237 238 233 232 233 220 203 198 199 203 213 219 222 233 235 228 221 218 212 206 205 207 203 198 201 209 211 209 204 203 209 214 203 191
226 223 226 226 226 232 235 237 239 241 242 242 241 242 242 241 242 242 238 234 232 233 235 235 233 233 233 233 237 239 239 239 239 236 233 231 230 229 228 229 235 237 232 231 230 215 204 204 205 209 217 221 223 233 230 211 205 212 211 204 197 197 196 195 201 210 213 213 213 210 211 218 212 200
229 227 228 226 226 228 230 232 234 235 238 238 237 239 241 241 242 243 241 237 234 232 234 238 239 237 236 235 236 240 243 244 243 240 236 231 230 232 230 228 233 236 229 226 225 215 210 215 217 217 218 219 222 230 227 207 197 205 207 203 197 193 195 198 205 213 215 213 214 211 211 218 220 216
231 230 231 233 234 233 233 236 236 235 237 239 239 239 241 242 243 243 241 240 238 233 233 237 238 237 238 239 238 240 244 245 243 241 239 234 229 231 230 226 229 232 228 225 225 220 216 219 221 219 215 216 222 224 213 193 184 193 202 204 202 196 196 200 205 212 215 213 211 210 208 212 220 221
228 229 232 234 238 240 241 242 242 240 240 241 242 241 241 242 244 243 240 240 239 236 234 236 237 235 235 238 241 242 243 243 240 239 238 235 230 229 231 229 228 229 227 226 226 224 221 222 223 220 215 215 217 210 189 173 177 180 192 203 203 198 195 198 204 210 216 214 211 214 216 216 223 227
229 231 234 234 235 239 241 242 243 244 243 242 241 240 240 241 242 242 242 241 239 237 237 240 243 243 240 237 238 239 239 239 239 238 235 232 228 225 224 226 228 226 223 225 229 230 229 226 222 218 216 214 208 199 191 195 194 183 181 195 201 200 198 197 201 207 214 212 208 214 221 222 226 233
236 237 239 240 239 240 241 242 244 245 245 244 243 243 242 238 234 233 234 235 237 240 245 246 245 243 240 235 231 232 233 235 237 237 233 230 231 226 219 218 223 225 225 229 236 237 231 223 215 211 209 208 207 208 211 207 192 181 179 184 193 200 203 203 203 208 213 212 211 216 225 229 233 243
242 241 243 246 246 245 245 245 245 246 246 246 246 245 241 235 234 235 233 233 238 243 247 247 243 237 235 233 228 226 227 229 232 233 231 230 231 230 223 217 217 222 227 232 236 233 223 215 208 203 201 202 205 212 214 205 185 179 182 182 185 196 203 205 209 214 219 220 219 222 229 234 240 250
250 249 249 249 248 247 246 246 246 247 246 245 246 246 241 237 238 239 237 238 240 241 245 249 248 243 241 240 235 231 229 230 232 233 233 233 232 230 226 221 217 219 226 229 229 224 216 210 205 202 202 202 203 207 209 201 187 180 181 182 184 189 195 200 205 210 216 221 224 227 232 235 237 243